www.pogodaiklimat.ru

Погода и климат >> Архив погоды >> Самоа >> Станция Togitogiga


ПОГОДА на Станции Togitogiga

  • Прогноз погоды на Станции Togitogiga
  • Монитор погоды на Станции Togitogiga

АРХИВ ПОГОДЫ на Станции Togitogiga

Время (UTC), дата Ветер
(напр.,м/с)
 
Видим.   Явления Облачность Т
(С)
Тd
(С)
f
(%)
Тe
(С)
Тes
(С)
Комфортность P
(гПа)
Po
(гПа)
Тmin
(С)
Tmax
(С)
R
(мм)
R24
(мм)
S
(см)
15 16.01 С 1 н/о н/о +22.9 +22.9 100 +32 +32 очень
душно
1007.4 1007.0
18 16.01 штиль 0 н/о н/о +22.4 +22.4 100 +30 +30 очень
душно
1008.7 1008.3
21 16.01 штиль 0 н/о н/о +29.0 +29.0 100 +51 +51 опасность
перегрева
1009.6 1009.2
00 17.01 С 1 н/о н/о +27.4 +27.6 100 +44 +44 опасность
перегрева
1008.6 1008.2 +22.4 2
03 17.01 штиль 0 н/о н/о +27.7 +27.7 100 +45 +45 опасность
перегрева
1006.9 1006.5
06 17.01 штиль 0 н/о н/о +25.4 +25.4 100 +37 +37 очень
душно
1007.3 1006.9
09 17.01 С 1 н/о н/о +23.5 +23.5 100 +32 +32 очень
душно
1009.5 1009.1
12 17.01 С 1 н/о н/о +22.4 +22.4 100 +30 +30 очень
душно
1009.4 1009.0 +30.4
15 17.01 С 1 н/о н/о +21.8 +21.8 100 +28 +28 душно 1008.0 1007.6
18 17.01 С 1 н/о н/о +21.9 +21.9 100 +29 +29 очень
душно
1009.6 1009.2
21 17.01 штиль 0 н/о н/о +29.1 +29.1 100 +51 +51 опасность
перегрева
1010.0 1009.6
00 18.01 С 1 н/о н/о +26.5 +26.5 100 +40 +40 очень
душно
1008.9 1008.5 +22.0 9
03 18.01 С 1 н/о н/о +30.8 +30.8 100 +60 +60 опасность
перегрева
1007.3 1006.9
06 18.01 штиль 0 н/о н/о +24.8 +24.8 100 +35 +35 очень
душно
1008.9 1008.5
09 18.01 штиль 0 н/о н/о +23.3 +23.3 100 +33 +33 очень
душно
1010.6 1010.2
12 18.01 штиль 0 н/о н/о +21.9 +21.9 100 +29 +29 очень
душно
1009.9 1009.5 +29.3
15 18.01 штиль 0 н/о н/о +21.9 +21.9 100 +29 +29 очень
душно
1008.7 1008.3
18 18.01 С 1 н/о н/о +22.3 +22.3 100 +30 +30 очень
душно
1009.6 1009.2
21 18.01 С 1 н/о н/о +29.3 +29.3 100 +52 +52 опасность
перегрева
1010.2 1009.8
00 19.01 С 1 н/о н/о +27.9 +27.9 100 +46 +46 опасность
перегрева
1009.2 1008.8 +21.4
03 19.01 С 1 н/о н/о +26.7 +26.9 100 +41 +41 опасность
перегрева
1008.1 1007.7 3
06 19.01 штиль 0 н/о н/о +24.6 +24.6 100 +34 +34 очень
душно
1008.5 1008.1
09 19.01 штиль 0 н/о н/о +23.3 +23.3 100 +33 +33 очень
душно
1010.4 1010.0
12 19.01 штиль 0 н/о н/о +23.0 +23.0 100 +32 +32 очень
душно
1009.7 1009.3 +30.8
15 19.01 штиль 0 н/о н/о +23.0 +23.0 100 +32 +32 очень
душно
1008.0 1007.6
18 19.01 С 1 н/о н/о +23.1 +23.1 100 +32 +32 очень
душно
1009.2 1008.8
21 19.01 С 1 н/о н/о +28.7 +28.7 100 +49 +49 опасность
перегрева
1010.0 1009.6
00 20.01 С 1 н/о н/о +32.3 +32.5 100 +68 +68 опасность
перегрева
1009.2 1008.8 +21.8
03 20.01 н/о н/о +31.9 +32.1 100 1008.2 1007.8
06 20.01 штиль 0 н/о н/о +27.0 +27.2 100 +42 +42 опасность
перегрева
1010.2 1009.8
09 20.01 штиль 0 н/о н/о +23.7 +23.7 100 +32 +32 очень
душно
1011.3 1010.9
12 20.01 штиль 0 н/о н/о +22.5 +22.5 100 +30 +30 очень
душно
1010.1 1009.7 +30.5
15 20.01 штиль 0 н/о н/о +22.9 +22.9 100 +32 +32 очень
душно
1008.2 1007.8
18 20.01 штиль 0 н/о н/о +23.7 +23.7 100 +32 +32 очень
душно
1009.1 1008.7
21 20.01 н/о н/о +30.2 +30.2 100 1010.3 1009.9
00 21.01 С 1 н/о н/о +31.1 +31.3 100 +61 +61 опасность
перегрева
1008.9 1008.5 +22.5
03 21.01 штиль 0 н/о н/о +27.0 +27.2 100 +42 +42 опасность
перегрева
1007.8 1007.4 0.5
06 21.01 штиль 0 н/о н/о +25.5 +25.5 100 +37 +37 очень
душно
1007.5 1007.1
09 21.01 штиль 0 н/о н/о +24.0 +24.0 100 +33 +33 очень
душно
1008.8 1008.4
12 21.01 С 1 н/о н/о +23.3 +23.3 100 +33 +33 очень
душно
1008.5 1008.1 +33.1
15 21.01 штиль 0 н/о н/о +22.7 +22.7 100 +31 +31 очень
душно
1008.1 1007.7
18 21.01 штиль 0 н/о н/о +22.7 +22.7 100 +31 +31 очень
душно
1009.2 1008.8
21 21.01 С 2 н/о н/о +24.6 +24.8 100 +34 +34 очень
душно
1010.7 1010.3 4
03 22.01 штиль 0 н/о н/о +27.5 +27.5 100 +44 +44 опасность
перегрева
1006.8 1006.4
06 22.01 штиль 0 н/о н/о +26.0 +26.0 100 +39 +39 очень
душно
1007.2 1006.8
09 22.01 штиль 0 н/о н/о +23.9 +23.9 100 +33 +33 очень
душно
1008.4 1008.0
12 22.01 С 1 н/о н/о +22.8 +22.8 100 +31 +31 очень
душно
1007.9 1007.5 +32.4
15 22.01 С 1 н/о н/о +21.9 +21.9 100 +29 +29 очень
душно
1006.6 1006.2
18 22.01 штиль 0 н/о н/о +22.0 +22.0 100 +29 +29 очень
душно
1007.8 1007.4
21 22.01 С 1 н/о н/о +27.2 +27.2 100 +43 +43 опасность
перегрева
1008.2 1007.8
00 23.01 С 2 н/о н/о +28.0 +28.2 100 +46 +46 опасность
перегрева
1007.3 1006.9 +22.4
03 23.01 С 1 н/о н/о +25.1 +25.1 100 +36 +36 очень
душно
1006.5 1006.1 2
06 23.01 штиль 0 н/о н/о +25.4 +25.4 100 +37 +37 очень
душно
1007.0 1006.6
09 23.01 С 1 н/о н/о +23.5 +23.5 100 +32 +32 очень
душно
1008.6 1008.2
12 23.01 штиль 0 н/о н/о +23.6 +23.6 100 +32 +32 очень
душно
1008.4 1008.0 +27.8

 

Местоположение метеостанции Станция Togitogiga (Самоа): широта -14.03 долгота -171.77 высота над уровнем моря 4 м.

В архиве по умолчанию представлена погода на Станции Togitogiga за последнюю неделю. Архивные данные за месяц целиком и за предыдущие месяцы, начиная с января 2011 года, Вы можете получить, выбрав интересующий диапазон дат из раскрывающегося списка и нажав кнопку "Ввод!".


*Определитесь, кто Вы:
робот инопланетянин человек

Внимание! Время в таблицах - всемирное. Для получения местного времени необходимо прибавить поправку, которая равна 13 ч.

Смотрите также архив погоды в соседних городах и на ближайших метеорологических станциях:

Погода на Станции Le Mafa (Самоа) (20 км)
Погода Апиа (Американское Самоа) (27 км)
Погода в Луфилуфи (Самоа) (28 км)
Погода на Фалеоло восток (Самоа) (33 км)
Погода Фалеоло (Американское Самоа) (35 км)
Погода в Аэропорту Фалеоло (Самоа) (35 км)
Погода на Острове Маноно (Самоа) (42 км)
Погода в Аэропорту Маота (Самоа) (62 км)
Погода на Станции Le Piu Tai (Самоа) (92 км)
Погода на Станции Mount Talu (Самоа) (115 км)

Пояснения к столбцам:

Ветер - указаны скорость ветра в м/с - средняя за 10 мин, порывы в срок и между сроками (в фигурных скобках) и направление, откуда дует ветер: С - северный, СВ - северо-восточный, В - восточный, ЮВ - юго-восточный, Ю - южный, ЮЗ - юго-западный, З - западный, СЗ - северо-западный.
Видимость - горизонтальная дальность видимости в метрах или километрах. При видимости от 1 до 10 км при отсутствии осадков обычно наблюдается дымка, при ухудшении видимости до 1 км и менее - туман. В сухую погоду видимость может ухудшаться дымом, пылью или мглою.
Явления - указаны атмосферные явления, наблюдавшиеся в срок или в последний час перед сроком; фигурными скобками обозначены явления, наблюдавшиеся между сроками (за 1-3 часа до срока); квадратными скобками обозначены град или гололедные отложения с указанием их диаметра в мм.
Облачность - указаны через наклонную черту общая и нижняя облачность в баллах и высота нижней границы облаков в метрах; квадратными скобками обозначены формы облаков: Ci - перистые, Cs - перисто-слоистые, Cc - перисто-кучевые, Ac - высококучевые, As - высокослоистые, Sc - слоисто-кучевые, Ns - слоисто-дождевые, Cu - кучевые, Cb - кучево-дождевые. Подробнее классификацию облаков см. в Атласе облаков (PDF).
T - Температура воздуха - температура, измеренная на высоте 2 м над землей.
Td - Температура точки росы - температура, при понижении до которой содержащийся в воздухе водяной пар достигнет насыщения.
f - Относительная влажность воздуха - влажноcть воздуха, измеренная на высоте 2 м над землей.
Te - Эффективная температура - температура, которую ощущает одетый по сезону человек в тени. Характеристика душности погоды. При расчете учитывается влияние влажности воздуха и скорости ветра на теплоощущения человека.
Tes - Эффективная температура на солнце - температура, которую ощущает человек, с поправкой на солнечный нагрев. Характеристика знойности погоды. Зависит от высоты солнца над горизонтом, облачности и скорости ветра. Ночью, в пасмурную погоду, а также при ветре 12 м/с и более поправка равна нулю.
P - Атмосферное давление - приведенное к уровню моря атмосферное давление.
Po - Атмосферное давление - измеренное на уровне метеостанции атмосферное давление.
Tmin - Минимальная температура - минимум температуры воздуха на высоте 2 м над землей.
Tmax - Максимальная температура - максимум температуры воздуха на высоте 2 м над землей.
R - Количество осадков - Количество выпавших осадков за период времени, мм. При наведении курсора мыши на число - период времени, за который выпало указанное количество осадков.
R24 - Количество осадков - Количество выпавших осадков за 24 часа, мм.
S - Снежный покров - Высота снежного покрова, см. При наведении курсора мыши на число - состояние снежного покрова и степень покрытия местности в баллах.